Hourly Data Report for September 13, 2017

All times are specified in Local Standard Time (LST). Add 1 hour to adjust for Daylight Saving Time where and when it is observed.

GJOA HAVEN A
NUNAVUT

68°38'08.000" N
95°51'01.000" W
46.90 m
2302337
71597
YHK

Download Data

Hourly Data (September 2017)
Hourly Data Report for September 13, 2017
Temp Definition
°C
Dew Point Temp Definition
°C
Rel Hum Definition
%
Wind Dir Definition
10's deg

Wind Spd Definition
km/h
Visibility Definition
km
Stn Press Definition
kPa
Hmdx Definition


Wind Chill Definition


Weather Definition


TIME
00:00 Legend Double Dagger 2.1 1.2 94 15 15 16.1 101.05     LegendNANA
01:00 Legend Double Dagger 1.8 0.8 93 15 17 16.1 101.04     LegendNANA
02:00 Legend Double Dagger 1.6 0.7 94 16 15 16.1 101.06     LegendNANA
03:00 Legend Double Dagger 1.3 0.6 95 16 17 16.1 101.08     LegendNANA
04:00 Legend Double Dagger 1.5 0.5 93 16 18 16.1 101.08     LegendNANA
05:00 Legend Double Dagger 1.9 0.3 89 14 21 16.1 101.08     LegendNANA
06:00 Legend Double Dagger 1.8 0.6 92 16 18 16.1 101.08     LegendNANA
07:00 Legend Double Dagger 2.4 1.1 91 16 18 16.1 101.06     LegendNANA
08:00 Legend Double Dagger 3.1 1.5 89 18 18 16.1 101.02     LegendNANA
09:00 Legend Double Dagger 3.4 1.8 89 17 15 16.1 101.02     LegendNANA
10:00 Legend Double Dagger 4.0 2.5 90 18 18 16.1 101.01     LegendNANA
11:00 Legend Double Dagger 4.0 1.9 86 18 22 16.1 100.99     LegendNANA
12:00 Legend Double Dagger 4.1 1.6 84 19 24 16.1 101.00     LegendNANA
13:00 Legend Double Dagger 4.1 2.1 87 19 22 16.1 101.00     LegendNANA
14:00 Legend Double Dagger 4.7 2.5 86 19 24 16.1 100.99     LegendNANA
15:00 Legend Double Dagger 4.4 2.3 86 18 22 16.1 100.99     LegendNANA
16:00 Legend Double Dagger 4.1 2.6 90 18 17 16.1 100.99     LegendNANA
17:00 Legend Double Dagger 4.0 2.7 91 18 18 16.1 100.97     LegendNANA
18:00 Legend Double Dagger 3.6 2.4 92 20 18 16.1 100.97     LegendNANA
19:00 Legend Double Dagger 3.3 2.1 92 19 15 16.1 100.96     LegendNANA
20:00 Legend Double Dagger 3.2 2.5 95 25 11 16.1 100.95     LegendNANA
21:00 Legend Double Dagger 1.0 0.9 99 29 11 16.1 100.95     LegendNANA
22:00 Legend Double Dagger 0.8 0.8 100 28 13 0.8 100.96     Fog
23:00 Legend Double Dagger 2.1 2.1 100 26 13 16.1 100.97     LegendNANA

Notes on Data Quality.

Legend

  • E = Estimated
  • M = Missing
  • NA = Not Available
  • ‡ = Partner data that is not subject to review by the National Climate Archives
Date modified: